Dewpoint
72 69 65 63 52 47 38 39 41 41 41 49 50 46 43 45 42 40 61 65 67 67 69 72 76 76 76 76 76 76 75 75 75 75 75 75 74 73 73 72 72 73 72 72 73 72 72 71 71
71 68 65 56 47 37 38 42 39 42 48 50 49 47 45 51 55 60 64 67 66 65 67 68 76 76 76 76 76 77 76 76 75 75 75 74 74 73 72 72 71 71 72 72 72 72 72 71 71
70 69 56 44 41 36 37 42 43 47 48 45 46 51 51 52 57 60 64 67 66 65 66 69 75 76 76 76 76 76 76 76 76 76 74 73 73 72 71 71 72 73 72 72 72 72 72 72 71
66 61 53 42 37 40 41 43 45 46 47 47 47 51 58 63 57 61 67 67 65 64 65 74 75 75 75 75 75 76 76 76 76 75 74 73 73 72 71 72 72 73 72 72 71 72 72 72 71
61 54 42 39 36 38 41 44 46 45 44 46 47 51 57 66 66 67 68 68 67 65 67 74 76 75 76 76 75 75 75 75 75 74 73 72 72 72 73 72 72 72 71 72 72 72 71 71 72
50 45 37 35 35 38 40 41 44 45 46 48 47 49 60 67 66 68 69 68 68 67 67 73 76 76 76 75 74 74 74 74 72 72 73 73 73 73 73 73 72 73 73 73 72 72 71 71 71
47 43 38 37 36 38 40 42 42 43 46 47 51 48 61 64 67 68 70 71 70 68 69 72 73 72 75 75 74 74 73 74 74 74 73 73 72 72 73 72 72 72 73 73 72 72 72 71 71
47 45 40 40 37 36 42 42 46 44 46 53 52 48 55 65 68 69 70 70 70 70 70 71 71 70 70 71 75 74 74 73 73 72 72 72 73 73 72 73 73 72 72 73 72 72 71 71 71
48 41 39 38 38 38 38 38 48 50 51 53 55 54 59 66 68 67 70 70 70 68 68 69 70 71 71 71 71 72 72 73 71 71 71 71 70 69 70 71 72 73 73 73 72 72 72 72 71
43 38 39 41 42 40 39 39 43 48 50 53 59 62 64 65 66 65 66 66 68 68 69 69 69 70 70 68 70 70 71 71 72 71 68 67 70 71 68 69 72 73 73 73 73 72 72 72 67
38 38 41 41 41 41 38 38 41 44 46 48 52 61 63 64 64 63 64 65 67 68 68 69 69 70 69 69 68 70 70 70 71 66 65 66 70 71 68 70 68 70 72 70 71 71 68 65 67
38 40 43 41 40 38 36 36 37 42 42 47 51 60 62 63 62 61 62 64 65 66 66 67 69 69 69 68 67 66 69 70 68 66 67 71 70 67 70 71 69 71 71 69 68 67 68 68 67
41 40 41 39 37 36 36 35 38 42 46 48 54 59 60 61 60 60 61 64 65 66 66 67 69 70 70 70 68 67 66 68 68 68 66 70 69 69 67 70 71 70 72 69 69 69 68 68 68
42 40 38 38 35 35 37 35 42 46 46 52 56 58 57 58 58 60 62 64 65 66 67 68 69 71 71 70 70 69 68 68 67 67 67 69 67 69 69 68 70 70 72 71 69 69 68 68 67
40 37 36 35 32 33 38 32 41 49 53 53 55 57 55 57 58 59 62 64 65 65 67 67 69 69 70 69 69 69 67 68 66 67 68 68 68 68 66 68 69 67 71 71 70 69 68 68 67
36 35 29 33 31 37 35 28 39 51 52 52 54 55 55 58 59 59 61 64 66 66 67 67 65 67 68 68 68 66 65 66 66 67 66 68 68 67 67 67 67 67 70 72 71 68 66 66 67
37 31 29 29 32 30 33 33 44 50 51 50 52 55 56 57 60 62 62 63 65 67 68 67 67 66 67 68 68 67 67 66 64 67 67 67 68 67 68 64 67 68 69 71 71 66 65 65 67
27 31 28 29 30 29 34 37 37 46 48 49 51 54 56 57 58 61 64 64 65 67 68 68 67 67 68 67 68 67 66 65 64 64 66 67 67 67 68 65 67 69 68 70 70 68 66 69 69
36 34 29 29 29 32 34 38 40 42 45 47 50 53 55 56 58 61 64 65 66 67 67 67 67 68 69 67 66 65 65 65 64 67 67 66 66 66 68 68 68 69 68 69 69 68 67 68 69
34 33 29 29 30 26 26 28 36 44 44 45 48 50 52 54 56 60 64 65 66 66 67 67 67 66 69 68 67 67 67 66 67 65 66 66 66 66 66 69 68 68 68 69 68 68 69 68 68
30 29 26 28 25 24 33 27 31 41 46 48 49 49 50 50 51 59 62 64 65 66 68 67 66 69 69 69 67 68 67 67 67 66 67 67 66 67 66 66 69 69 67 66 67 67 67 67 66
25 26 28 28 20 18 30 17 29 36 40 44 46 47 46 48 53 57 62 64 65 66 66 67 67 68 69 68 66 66 65 64 65 66 65 67 66 67 67 67 67 68 67 68 67 67 68 67 64
26 26 20 19 20 22 27 20 18 40 34 37 42 45 47 54 57 58 62 63 64 65 66 67 68 68 68 67 67 65 65 65 65 66 66 66 67 67 66 67 67 66 68 67 67 67 69 68 61
26 21 25 28 23 21 26 25 17 24 37 42 45 48 53 56 59 61 63 65 65 65 65 66 66 67 67 66 65 65 65 65 65 65 65 66 65 67 67 67 67 67 67 68 67 68 67 66 62
22 19 20 19 20 16 38 30 21 36 45 46 47 49 53 56 60 63 64 64 64 64 65 62 64 66 66 64 65 65 64 65 65 65 65 64 65 67 67 67 68 69 68 68 68 68 67 67 65
19 18 16 15 14 17 38 21 26 44 46 49 49 49 56 56 59 62 62 62 63 62 62 63 64 65 64 64 64 65 66 65 65 65 64 64 65 66 67 67 67 67 68 67 67 66 67 67 66
22 20 21 20 20 16 15 25 37 45 47 51 48 51 54 57 59 60 60 59 60 61 62 63 64 65 63 64 64 65 65 64 65 66 66 66 67 66 67 67 67 67 67 67 66 65 65 65 65
22 22 20 19 15 17 18 25 24 44 45 48 52 50 56 59 59 60 59 57 59 61 62 63 63 64 63 63 64 64 65 64 65 65 65 65 66 66 66 66 66 67 66 65 65 65 64 63 64
21 22 20 21 25 17 17 23 41 41 45 45 52 51 55 59 59 61 58 59 60 61 62 63 62 63 63 64 64 65 63 64 64 65 64 65 65 65 65 65 65 64 65 65 63 64 63 62 61
19 16 20 19 23 22 25 21 43 46 46 47 52 57 56 59 60 61 60 59 60 61 61 61 61 61 62 64 64 64 64 63 64 64 65 65 65 65 64 64 63 63 64 64 63 63 62 60 60
Wind_Speed
13 9 4 5 6 7 9 8 2 7 7 4 4 6 10 7 8 5 7 10 16 18 20 20 18 17 15 13 12 15 17 19 20 20 19 18 17 16 14 13 12 8 8 7 8 8 9 10 11
9 5 6 5 7 8 10 4 7 6 6 5 5 2 4 10 10 10 14 9 18 17 19 19 19 17 15 13 13 15 16 19 19 19 18 17 16 15 14 12 11 9 7 7 8 9 8 9 10
8 6 6 6 4 9 8 5 6 8 7 3 3 5 3 7 7 11 12 17 16 16 18 17 19 17 16 15 14 14 15 17 19 18 17 16 14 13 13 11 9 8 8 7 8 8 9 10 10
5 7 6 8 9 6 4 4 5 11 4 3 3 6 7 7 5 4 17 18 18 16 16 22 17 17 16 15 14 14 14 16 17 18 17 15 12 11 11 11 9 9 8 8 8 9 9 9 11
7 5 6 5 6 3 0 2 7 7 4 5 2 5 6 6 7 10 16 17 18 15 13 17 17 16 15 15 15 15 15 15 16 16 15 14 12 11 10 9 9 8 8 9 9 10 8 8 10
6 4 8 4 8 4 1 4 5 6 1 2 2 5 6 9 10 12 12 14 15 16 14 14 16 16 16 16 15 14 15 15 15 13 13 13 13 12 10 9 8 9 10 11 9 9 10 10 10
9 5 6 4 7 7 7 4 4 3 3 3 1 2 6 11 12 12 12 13 14 14 11 13 15 15 15 16 16 17 18 16 15 15 13 11 10 11 11 9 8 8 9 10 9 9 10 10 10
7 5 2 1 4 9 9 3 4 4 2 3 2 2 6 14 15 13 11 12 14 15 15 14 13 13 15 15 15 17 17 17 16 14 10 10 11 10 10 8 8 8 9 10 11 10 11 10 10
4 6 2 4 4 5 8 6 2 1 6 4 3 4 9 20 17 15 14 12 12 13 14 12 12 13 13 13 15 16 16 12 8 8 7 8 10 10 10 8 9 9 8 10 11 11 12 11 10
8 7 5 3 5 8 7 7 4 6 7 6 7 9 18 20 18 16 15 15 14 14 13 12 12 12 12 13 11 13 12 12 13 7 10 15 17 8 6 6 7 8 9 9 11 12 12 13 13
5 6 2 0 5 8 10 8 3 9 7 9 12 15 19 19 17 14 14 13 14 13 12 11 9 9 10 8 9 9 9 11 12 14 11 21 23 5 5 4 9 7 10 11 12 12 13 10 7
9 7 5 6 8 10 11 9 7 8 10 4 3 19 22 21 18 16 14 13 13 12 10 10 9 9 9 8 10 10 12 12 13 11 20 17 11 7 4 8 6 9 9 9 9 10 6 8 7
12 8 8 7 11 11 10 10 8 7 3 3 9 18 19 18 17 15 14 13 12 12 10 9 10 8 7 8 8 11 9 14 14 14 15 15 12 11 9 7 9 8 9 9 7 4 7 7 8
3 8 11 11 6 2 9 10 4 3 4 6 12 16 17 17 17 16 15 15 14 12 12 11 11 9 8 7 7 9 10 10 15 15 17 19 15 12 12 9 10 10 9 9 9 9 8 7 8
8 11 10 7 4 4 10 15 4 2 7 9 13 16 15 15 16 17 16 15 14 13 11 11 10 8 7 7 7 8 9 9 12 14 16 18 15 16 14 12 8 13 9 10 8 9 8 8 6
9 10 12 7 4 1 9 7 7 5 9 11 12 14 16 16 17 16 14 14 14 13 13 11 9 9 9 7 6 7 8 10 11 10 15 19 19 17 16 14 14 14 11 10 10 11 10 9 9
10 12 4 3 1 9 6 11 6 4 7 10 11 12 14 16 16 15 13 13 13 14 14 14 12 10 9 7 7 8 8 11 12 12 15 18 18 19 15 16 15 14 13 10 11 13 11 10 9
10 9 7 5 2 10 9 8 8 6 7 10 11 9 12 15 17 16 15 14 13 14 13 12 12 10 8 7 6 6 8 11 12 13 15 17 18 18 17 18 16 14 14 12 12 13 11 8 6
7 8 9 5 6 8 5 6 2 4 9 10 11 11 11 13 13 13 15 16 14 13 12 13 12 10 9 8 8 10 11 12 13 14 16 17 19 20 18 17 17 16 15 15 14 14 12 8 6
12 12 12 6 4 8 9 10 4 5 9 10 10 11 11 12 13 10 13 15 15 14 13 12 11 9 8 8 7 7 9 9 11 11 15 18 19 18 18 17 17 16 14 16 14 13 11 7 8
16 14 11 8 9 9 9 12 7 4 7 6 8 9 9 10 10 13 12 14 13 12 12 11 8 6 5 5 7 9 10 7 9 12 13 15 18 19 19 18 15 16 16 17 15 17 14 9 8
15 12 10 14 9 9 2 11 7 4 7 11 12 11 10 7 6 9 11 11 10 10 9 6 6 5 3 5 8 10 10 12 10 12 10 12 16 17 18 18 17 14 13 14 18 15 13 12 9
14 4 7 7 10 8 11 9 8 5 9 7 11 9 6 1 5 11 12 10 9 9 9 6 5 4 1 3 3 8 11 12 10 11 11 13 12 14 17 18 16 16 16 17 18 15 13 13 8
8 8 6 8 11 14 5 7 12 5 2 1 6 6 4 6 9 11 12 11 10 8 7 5 4 2 2 2 7 9 8 8 8 7 9 11 9 10 15 15 15 16 17 17 16 14 14 13 9
15 14 12 12 13 14 4 6 12 1 4 2 5 7 4 9 12 14 14 12 9 7 5 2 1 3 1 1 5 3 6 8 9 7 8 9 9 11 12 13 13 14 14 13 13 11 9 9 10
21 18 16 8 13 8 4 8 2 2 3 6 9 7 7 10 11 10 11 10 7 5 2 1 0 0 2 4 5 8 6 8 7 5 8 8 10 10 11 12 13 13 13 15 13 9 3 6 9
14 20 19 14 8 11 12 6 9 4 6 6 8 8 9 9 10 10 8 7 8 5 2 1 1 1 3 6 5 6 8 7 8 6 5 7 7 10 11 11 14 15 16 13 9 6 3 5 5
10 18 13 14 18 11 8 7 11 8 10 9 8 9 8 10 11 10 8 9 7 4 2 2 1 2 4 5 5 4 4 8 8 10 10 11 10 12 12 11 13 13 11 10 8 6 6 5 7
14 15 13 10 5 14 13 7 5 7 9 9 5 7 9 12 11 9 8 7 6 3 1 3 2 4 4 3 4 3 5 8 6 8 8 8 9 11 11 11 11 12 13 9 7 9 10 10 8
22 23 22 17 16 15 13 9 7 6 8 6 6 6 7 12 13 9 6 6 3 1 1 2 2 2 3 2 4 4 7 7 6 5 6 5 5 7 12 11 11 10 13 13 9 6 4 5 5
Wind_Direction
158 165 169 209 231 236 96 98 86 96 84 41 70 17 46 26 10 30 137 134 153 154 152 165 157 165 161 151 146 148 152 150 150 153 156 157 151 150 149 150 147 145 138 150 148 143 135 132 130
162 162 203 251 253 137 93 98 104 71 95 107 107 129 48 70 58 105 138 160 158 152 155 167 160 167 165 157 150 145 148 150 150 152 153 154 153 153 153 154 154 159 156 162 160 154 147 146 143
186 221 267 289 261 65 94 90 115 120 131 126 105 29 24 76 93 131 123 155 160 162 159 152 164 168 167 163 157 151 145 147 148 151 153 156 156 161 160 157 165 162 156 163 160 155 152 151 151
229 208 222 260 79 81 41 124 148 154 155 178 106 93 97 54 125 82 147 160 159 174 166 140 166 170 171 168 161 157 152 150 150 154 155 160 166 173 169 159 163 158 160 163 158 155 152 157 154
246 246 238 176 104 82 359 349 201 201 65 141 213 99 88 87 99 126 153 163 165 174 170 155 163 167 171 171 168 162 159 157 156 156 160 168 172 179 173 164 172 161 161 158 157 153 155 152 154
255 268 222 204 89 68 22 262 242 233 153 108 177 118 89 121 126 129 152 171 167 171 173 164 164 169 172 174 172 169 165 162 163 163 170 177 176 181 178 179 183 174 165 159 157 156 158 151 155
272 280 12 53 98 69 31 342 245 278 233 234 90 70 115 150 126 135 145 169 169 171 178 169 172 179 175 178 177 175 173 170 166 169 173 181 185 194 182 189 192 193 168 163 161 156 156 155 159
279 270 159 112 64 57 59 80 342 261 151 123 230 130 149 147 142 139 148 159 166 174 182 182 182 183 188 185 187 183 178 175 169 172 180 189 199 197 197 196 196 191 172 163 160 159 156 157 161
264 234 160 76 18 13 35 7 91 179 157 188 149 67 111 141 145 147 150 161 171 178 184 189 189 191 201 207 197 193 188 181 189 181 159 222 210 208 199 203 177 192 182 171 165 160 161 159 164
242 257 67 6 8 347 344 338 328 218 185 176 146 112 129 148 156 158 166 171 178 182 184 190 193 195 194 208 203 203 196 164 162 143 82 320 283 215 241 192 198 202 197 183 166 165 163 192 169
197 266 24 47 353 328 320 300 240 249 223 224 197 157 155 159 164 168 174 178 184 186 187 192 193 200 201 193 212 190 189 176 164 153 137 253 253 218 241 219 204 208 205 190 183 172 196 196 171
243 237 271 300 314 307 308 316 291 251 275 326 181 161 164 167 170 174 178 179 178 182 184 177 182 186 199 206 207 219 187 199 183 171 175 206 212 197 285 270 237 210 216 230 194 183 152 186 196
234 257 290 286 297 309 296 283 298 286 213 152 146 162 168 169 171 176 179 181 180 184 184 184 183 194 201 207 228 227 217 196 197 198 206 194 192 180 207 257 272 234 214 212 220 177 179 183 189
114 273 283 286 335 309 299 311 270 91 195 174 159 167 168 175 172 176 184 187 192 189 188 188 191 193 197 217 223 237 223 210 207 198 205 202 202 181 193 213 250 249 227 220 202 180 182 193 190
256 271 269 248 326 358 321 255 242 112 170 169 169 173 165 176 178 188 188 193 194 193 194 194 191 187 194 199 220 232 242 224 221 206 211 214 205 194 201 204 221 244 228 220 219 191 196 195 193
248 253 261 115 292 128 328 290 80 149 168 173 172 173 173 180 191 195 190 197 195 193 195 194 188 186 198 196 202 233 239 243 219 236 220 215 213 203 198 208 207 230 212 210 216 204 202 207 197
207 249 220 202 281 329 328 319 67 176 191 192 187 181 186 191 199 204 201 200 197 201 194 190 187 195 192 193 213 214 223 239 239 212 217 220 222 215 208 213 214 216 209 201 212 214 210 200 202
240 219 196 258 337 316 290 270 243 190 215 206 205 196 199 206 210 204 205 206 199 203 200 191 191 195 193 197 207 239 239 240 247 239 218 219 219 219 216 222 222 204 208 205 213 215 210 202 198
272 258 257 259 313 299 271 281 262 215 221 211 213 209 221 223 212 201 200 202 201 204 205 196 193 188 193 200 216 243 244 246 237 233 237 228 220 220 213 214 214 211 202 207 213 213 215 186 185
239 247 255 279 192 294 290 287 254 241 239 229 216 225 226 222 221 201 206 201 202 202 210 209 206 197 201 217 240 255 258 250 249 246 236 230 226 222 215 212 208 204 200 208 202 207 203 190 201
234 241 242 264 302 266 285 242 193 227 246 221 232 239 249 248 230 195 198 197 198 202 208 209 216 185 199 221 255 265 265 263 248 244 232 228 223 217 219 208 205 201 200 206 194 208 207 193 196
239 223 251 259 258 253 299 273 177 232 250 236 241 236 241 245 215 181 184 181 190 194 195 192 171 173 191 237 277 281 263 262 253 254 239 216 213 216 208 215 210 203 194 208 200 212 207 204 204
241 240 237 243 247 271 200 258 273 183 278 244 226 221 244 287 154 165 168 166 187 167 172 165 148 153 219 240 222 254 260 257 261 250 232 210 208 211 208 209 207 202 187 213 208 203 199 203 226
192 206 218 241 242 234 204 268 276 346 325 301 149 182 196 149 142 150 145 156 162 159 156 168 169 95 118 232 258 272 285 296 285 267 217 194 197 201 205 201 207 196 196 199 203 194 191 216 206
214 205 210 221 210 244 110 245 267 100 131 181 190 207 166 156 157 146 154 166 165 161 157 184 218 119 176 356 10 318 0 341 315 281 185 176 187 192 193 189 193 188 190 189 172 169 178 200 202
201 212 240 223 238 226 150 258 261 122 254 189 203 204 157 170 153 155 163 158 141 111 102 11 38 60 135 116 74 344 45 35 7 131 156 176 184 173 161 173 173 175 175 164 150 140 170 210 215
190 221 242 270 259 278 267 240 247 205 182 175 187 192 182 167 146 161 143 117 99 81 25 334 64 184 77 112 103 61 72 59 54 88 121 120 141 141 139 137 143 143 147 140 118 140 206 208 218
243 213 206 228 262 256 222 259 268 190 196 191 199 190 170 154 150 152 128 110 95 60 4 345 354 190 123 105 108 78 116 90 57 80 70 106 108 121 123 121 124 138 127 105 127 168 196 199 189
196 219 235 287 290 289 271 230 99 176 185 191 170 181 173 162 161 150 117 106 97 86 25 300 212 204 189 160 120 134 118 130 81 72 75 80 102 113 120 122 120 135 146 149 175 191 181 188 191
210 215 214 234 217 230 293 305 134 170 200 206 157 158 173 163 165 118 138 139 115 134 214 205 254 209 197 132 105 113 164 145 136 99 93 108 107 126 133 124 107 124 150 160 173 192 177 193 204